User: anonymous   Login
Location: New Plymouth
(39.0670°S, 174.0830°E)
Time: 06:08:54
(UTC+13:00)
Language:

Cosmos 1242 Rocket - Orbit

View from above orbital plane
View from above orbital plane
View from above satellite
View from above satellite

Ground track
Ground track

The orbit data is extracted from the following two-line orbital elements,

1 12155U 81008B   19294.92812081 +.00000749 +00000-0 +22765-4 0  9993
2 12155 081.1597 125.6340 0027601 292.0903 067.7404 15.32355546091770
Epoch (UTC): 21 October 2019 22:16:29
Eccentricity: 0.0027601
inclination: 81.1597°
perigee height: 450 km
apogee height: 487 km
right ascension of ascending node: 125.6340°
argument of perigee: 292.0903°
revolutions per day: 15.32355546
mean anomaly at epoch: 67.7404°
orbit number at epoch: 9177

The dashed part of the orbit path shows where the satellite is in the earth's shadow,  

DLR